Location: Gettysburg
(39.8310°N, 77.2310°W)
Time: 07:55:29
(UTC-04:00)

ATLAS 2AS CENTAUR R/B - Visible Passes

Search period start: 30 August 2015 00:00
Search period end: 09 September 2015 00:00
Orbit: 911 x 1301 km, 63.7° (Epoch: 23 August)

Date Brightness Start Highest point End Pass type
(mag) Time Alt. Az. Time Alt. Az. Time Alt. Az.
30 Aug 4.3 00:08:57 14° W 00:14:41 33° NW 00:21:44 10° NNE visible
30 Aug 5.5 02:04:47 10° NW 02:08:34 14° NNW 02:12:15 10° NNE visible
30 Aug 5.6 03:59:47 10° NNW 04:03:28 14° NNE 04:07:18 10° NE visible
30 Aug 4.9 05:50:18 10° NNW 05:57:25 33° NE 06:04:25 10° ESE visible
30 Aug 3.2 21:31:52 10° S 21:38:28 42° ESE 21:45:43 10° NE visible
30 Aug 3.8 23:22:22 10° WSW 23:29:28 47° NW 23:37:05 10° NNE visible
31 Aug 5.3 01:18:02 10° WNW 01:22:48 17° NNW 01:27:30 10° NNE visible
31 Aug 5.6 03:14:44 10° NNW 03:17:36 12° N 03:20:34 10° NNE visible
31 Aug 5.2 05:05:42 10° NNW 05:11:59 24° NNE 05:18:20 10° E visible
31 Aug 3.7 20:48:25 10° SSE 20:54:01 26° ESE 21:00:14 10° NE visible
31 Aug 3.2 22:37:09 10° SW 22:44:26 68° NW 22:52:21 10° NNE visible
01 Sep 5.1 00:31:29 10° WNW 00:37:09 21° NNW 00:42:51 10° NNE visible
01 Sep 5.6 02:29:01 10° NNW 02:31:42 12° N 02:34:22 10° NNE visible
01 Sep 5.5 04:21:05 10° NNW 04:26:24 19° NNE 04:31:53 10° ENE visible
01 Sep 4.2 20:06:01 10° SE 20:09:40 15° ESE 20:13:56 10° ENE visible
01 Sep 2.8 21:52:20 10° SSW 21:59:35 83° ESE 22:07:32 10° NE visible
01 Sep 4.7 23:45:15 10° W 23:51:38 28° NW 23:58:15 10° NNE visible
02 Sep 5.6 01:42:34 10° NW 01:45:49 13° N 01:48:59 10° NNE visible
02 Sep 5.6 03:36:24 10° NNW 03:40:41 15° NNE 03:45:08 10° NE visible
02 Sep 4.5 05:26:50 10° NNW 05:34:19 39° NE 05:41:37 10° ESE visible
02 Sep 2.9 21:07:59 10° S 21:14:55 55° ESE 21:22:33 10° NE visible
02 Sep 4.2 22:59:25 10° WSW 23:06:18 38° NW 23:13:37 10° NNE visible
03 Sep 5.5 00:55:47 10° NW 00:59:59 15° NNW 01:04:04 10° NNE visible
03 Sep 5.7 02:51:33 10° NNW 02:54:52 13° N 02:58:18 10° NE visible
03 Sep 4.9 04:42:11 10° NNW 04:48:59 29° NE 04:55:45 10° E visible
03 Sep 3.4 20:24:08 10° S 20:30:24 35° ESE 20:37:18 10° NE visible
03 Sep 3.6 22:13:58 10° SW 22:21:10 54° NW 22:28:56 10° NNE visible
04 Sep 5.3 00:09:05 10° WNW 00:14:15 18° NNW 00:19:23 10° NNE visible
04 Sep 5.7 02:06:16 10° NNW 02:08:58 12° N 02:11:43 10° NNE visible
04 Sep 5.3 03:57:35 10° NNW 04:03:30 22° NNE 04:09:30 10° E visible
04 Sep 3.5 05:48:04 10° NNW 05:56:11 69° NE 06:03:55 10° SE visible
04 Sep 3.0 21:28:55 10° SW 21:36:12 79° NW 21:44:11 10° NNE visible
04 Sep 5.0 23:22:40 10° W 23:28:39 23° NNW 23:34:45 10° NNE visible
05 Sep 5.7 01:20:14 10° NNW 01:23:03 12° N 01:25:52 10° NNE visible
05 Sep 5.5 03:12:57 10° NNW 03:17:52 17° NNE 03:22:56 10° ENE visible
05 Sep 4.1 05:03:21 10° NNW 05:11:09 48° NE 05:18:41 10° ESE visible
05 Sep 2.9 20:44:16 10° SSW 20:51:26 71° ESE 20:59:18 10° NE visible
05 Sep 4.6 22:36:36 10° W 22:43:13 31° NW 22:50:07 10° NNE visible
06 Sep 5.6 00:33:34 10° NW 00:37:12 13° NNW 00:40:43 10° NNE visible
06 Sep 5.6 02:28:14 10° NNW 02:32:06 14° NNE 02:36:08 10° NE visible
06 Sep 4.6 04:18:42 10° NNW 04:25:56 35° NE 04:33:03 10° ESE visible
06 Sep 3.1 06:09:35 10° NW 06:17:36 66° WSW 06:25:09 10° SSE visible
06 Sep 3.2 20:00:06 10° S 20:06:50 46° ESE 20:14:13 10° NE visible
06 Sep 4.0 21:50:55 10° WSW 21:57:57 44° NW 22:05:29 10° NNE visible
06 Sep 5.5 23:46:48 10° WNW 23:51:24 16° NNW 23:55:55 10° NNE visible
07 Sep 5.7 01:43:15 10° NNW 01:46:14 12° N 01:49:20 10° NNE visible
07 Sep 5.0 03:34:05 10° NNW 03:40:33 26° NE 03:47:01 10° E visible
07 Sep 3.1 05:24:40 10° NNW 05:32:51 85° NE 05:40:35 10° SE visible
07 Sep 3.4 21:05:37 10° SW 21:12:53 63° NW 21:20:47 10° NNE visible
07 Sep 5.2 23:00:12 10° WNW 23:05:43 20° NNW 23:11:15 10° NNE visible
08 Sep 5.7 00:57:40 10° NNW 01:00:20 12° N 01:03:00 10° NNE visible
08 Sep 5.3 02:49:29 10° NNW 02:54:59 20° NNE 03:00:38 10° ENE visible
08 Sep 3.6 04:39:54 10° NNW 04:47:56 60° NE 04:55:36 10° SE visible
08 Sep 3.0 20:20:44 10° SSW 20:28:00 89° ESE 20:35:59 10° NE visible
08 Sep 4.9 22:13:55 10° W 22:20:11 26° NW 22:26:38 10° NNE visible
